Tracking 28790 objects as of 19-Apr-2024
HD Live streaming from Space Station
objects crossing your sky now

STARLINK-4261

Track STARLINK-4261 now!
10-day predictions
STARLINK-4261 is classified as:


NORAD ID: 52868
Int'l Code: 2022-062AQ
Perigee: 545.9 km
Apogee: 547.8 km
Inclination: 53.2 °
Period: 95.4 minutes
Semi major axis: 6917 km
RCS: Unknown
Launch date: June 17, 2022
Source: United States (US)
Launch site: AIR FORCE EASTERN TEST RANGE (AFETR)
Your satellite tracking list
Your tracking list is empty




NASA's NSSDC Master Catalog

Two Line Element Set (TLE):
1 52868U 22062AQ  24109.63620602  .00008469  00000-0  54928-3 0  9990
2 52868  53.2167 241.9164 0001350  97.5881 262.5265 15.08857917101752
Source of the keplerian elements: AFSPC